Location: Fenile
(46.0500°N, 9.5500°E)
Time: 16:31:32
(UTC+00:00)

Meteor 1-23 Rocket - Pass Details

Date: 03 March 2021
Orbit: 838 x 888 km, 81.3° (Epoch: 15 April)

Event Time Altitude Azimuth Distance (km) Brightness Sun altitude
Rises 19:21:54 0° 351° (N) 3,406 7.7 -23.3°
Reaches altitude 10° 19:24:21 10° 354° (N) 2,470 6.9 -23.7°
Maximum altitude 19:29:55 66° 77° (ENE) 925 4.1 -24.6°
Enters shadow 19:30:17 64° 100° (E) 938 4.1 -24.7°
